Location: Pasadena, ca
(34.1243°N, 118.1037°W)
Time: 10:46:30
(UTC-07:00)

Vanguard 1 Rocket - Visible Passes

Search period start: 21 October 2017 00:00
Search period end: 31 October 2017 00:00
Orbit: 655 x 4222 km, 34.3° (Epoch: 20 October)

Date Brightness Start Highest point End Pass type
(mag) Time Alt. Az. Time Alt. Az. Time Alt. Az.
21 Oct 10.1 04:55:18 10° SSW 05:05:49 26° SSE 05:12:19 10° E visible
22 Oct 10.7 03:43:54 10° S 03:53:32 19° SSE 04:00:21 10° ESE visible
22 Oct 9.0 06:09:53 10° SW 06:20:57 46° SSE 06:27:02 10° E visible
23 Oct 11.1 02:38:04 12° SSE 02:40:42 13° SSE 02:45:59 10° SE visible
23 Oct 9.7 04:56:39 10° SW 05:09:14 36° SSE 05:16:22 10° E visible
24 Oct 10.3 03:49:28 19° S 03:56:59 27° SSE 04:05:03 10° E visible
24 Oct 8.8 06:12:19 10° WSW 06:24:18 58° SSE 06:30:38 10° E visible
25 Oct 10.9 02:43:17 19° SSE 02:44:10 20° SSE 02:52:29 10° ESE visible
25 Oct 9.4 05:00:40 14° SW 05:12:36 46° SSE 05:20:07 10° E visible
26 Oct 10.0 03:54:21 28° S 04:00:20 36° SSE 04:09:10 10° E visible
26 Oct 8.6 06:14:58 10° WSW 06:27:38 70° SSE 06:34:08 10° E visible
27 Oct 10.6 02:47:54 27° SSE 02:47:54 27° SSE 02:57:22 10° E visible
27 Oct 9.2 05:05:15 20° SW 05:15:54 57° SSE 05:23:44 10° E visible
28 Oct 11.1 01:41:21 14° ESE 01:41:21 14° ESE 01:43:53 10° ESE visible
28 Oct 9.8 03:58:41 37° SSW 04:03:37 45° SSE 04:12:58 10° E visible
28 Oct 8.5 06:17:48 10° WSW 06:30:58 80° SSE 06:37:36 10° E visible
29 Oct 10.3 02:52:02 35° SE 02:52:02 35° SE 03:01:35 10° E visible
29 Oct 9.0 05:09:23 25° SW 05:19:11 68° SSE 05:27:14 10° E visible
30 Oct 11.0 01:45:18 18° ESE 01:45:18 18° ESE 01:49:03 10° E visible
30 Oct 9.6 04:02:38 46° SSW 04:06:50 55° SSE 04:16:35 10° E visible
30 Oct 8.5 06:20:45 10° WSW 06:34:18 87° S 06:41:04 10° E visible
